Location: Casalecchio di Reno
(44.4760°N, 11.2757°E)
Time: 10:45:51
(UTC+02:00)

AO-73 - Pass Details

Date: 26 June 2024
Orbit: 555 x 624 km, 97.7° (Epoch: 17 July)

Event Time Altitude Azimuth Distance (km) Brightness Sun altitude
Rises 04:01:58 0° 19° (NNE) 2,748 ? -12.5°
Reaches altitude 10° 04:04:11 10° 26° (NNE) 1,849 ? -12.3°
Maximum altitude 04:08:01 44° 99° (E) 785 ? -11.8°
Drops below altitude 10° 04:11:50 10° 172° (S) 1,850 ? -11.4°
Enters shadow 04:12:27 - 174° (S) 2,097 ? -11.3°
